User: anonymous   Login
Location: Newark
(27.9675°N, 86.8869°E)
Time: 11:32:51
(UTC+00:00)
Language:

Explorer 7 - Orbit

View from above orbital plane
View from above orbital plane
View from above satellite
View from above satellite

Ground track
Ground track

The orbit data is extracted from the following two-line orbital elements,

1    22U 59009A   19290.87008278 +.00000135 +00000-0 +33544-4 0  9990
2    22 050.2831 164.8109 0140175 048.1805 313.1014 14.94957544433935
Epoch (UTC): 17 October 2019 20:52:55
Eccentricity: 0.0140175
inclination: 50.2831°
perigee height: 485 km
apogee height: 680 km
right ascension of ascending node: 164.8109°
argument of perigee: 48.1805°
revolutions per day: 14.94957544
mean anomaly at epoch: 313.1014°
orbit number at epoch: 43393

The dashed part of the orbit path shows where the satellite is in the earth's shadow,  

DLR